Tracking 25709 objects as of 24-May-2022
HD Live streaming from Space Station
objects crossing your sky now

SPACEBEE-34

Track SPACEBEE-34 now!
10-day predictions


NORAD ID: 46933
Int'l Code: 2020-085E
Perigee: 437.6 km
Apogee: 453.5 km
Inclination: 97.4 °
Period: 93.3 minutes
Semi major axis: 6816 km
RCS: Unknown
Launch date: November 20, 2020
Source: United States (US)
Launch site: Rocket Lab Launch Complex (RLLC)
aabbcc
Your satellite tracking list
Your tracking list is empty




NASA's NSSDC Master Catalog

Two Line Element Set (TLE):
1 46933U 20085E   22143.43950592  .00126928  00000-0  28697-2 0  9991
2 46933  97.4228 283.7610 0011648 180.2034 179.9230 15.42614414 83794
Source of the keplerian elements: AFSPC